Year,Month,Day,Hour,Minute,Value (Times are PST for temperature in C)
2011,04,16,00,00,3.10
2011,04,16,00,01,3.00
2011,04,16,00,02,3.00
2011,04,16,00,03,2.90
2011,04,16,00,04,2.90
2011,04,16,00,05,2.90
2011,04,16,00,06,2.90
2011,04,16,00,07,2.90
2011,04,16,00,08,2.80
2011,04,16,00,09,2.80
2011,04,16,00,10,2.80
2011,04,16,00,11,2.80
2011,04,16,00,12,2.80
2011,04,16,00,13,2.80
2011,04,16,00,14,2.80
2011,04,16,00,15,2.80
2011,04,16,00,16,2.70
2011,04,16,00,17,2.70
2011,04,16,00,18,2.70
2011,04,16,00,19,2.70
2011,04,16,00,20,2.60
2011,04,16,00,21,2.60
2011,04,16,00,22,2.60
2011,04,16,00,23,2.60
2011,04,16,00,24,2.60
2011,04,16,00,25,2.50
2011,04,16,00,26,2.50
2011,04,16,00,27,2.50
2011,04,16,00,28,2.50
2011,04,16,00,29,2.50
2011,04,16,00,30,2.40
2011,04,16,00,31,2.40
2011,04,16,00,32,2.40
2011,04,16,00,33,2.40
2011,04,16,00,34,2.40
2011,04,16,00,35,2.40
2011,04,16,00,36,2.40
2011,04,16,00,37,2.30
2011,04,16,00,38,2.30
2011,04,16,00,39,2.30
2011,04,16,00,40,2.30
2011,04,16,00,41,2.20
2011,04,16,00,42,2.20
2011,04,16,00,43,2.20
2011,04,16,00,44,2.20
2011,04,16,00,45,2.10
2011,04,16,00,46,2.10
2011,04,16,00,47,2.10
2011,04,16,00,48,2.10
2011,04,16,00,49,2.10
2011,04,16,00,50,2.10
2011,04,16,00,51,2.00
2011,04,16,00,52,2.00
2011,04,16,00,53,2.00
2011,04,16,00,54,2.00
2011,04,16,00,55,1.90
2011,04,16,00,56,1.90
2011,04,16,00,57,1.90
2011,04,16,00,58,1.90
2011,04,16,00,59,1.90
2011,04,16,01,00,1.90
2011,04,16,01,01,1.90
2011,04,16,01,02,1.80
2011,04,16,01,03,1.90
2011,04,16,01,04,1.90
2011,04,16,01,05,1.80
2011,04,16,01,06,1.80
2011,04,16,01,07,1.80
2011,04,16,01,08,1.80
2011,04,16,01,09,1.80
2011,04,16,01,10,1.80
2011,04,16,01,11,1.80
2011,04,16,01,12,1.80
2011,04,16,01,13,1.80
2011,04,16,01,14,1.80
2011,04,16,01,15,1.80
2011,04,16,01,16,1.80
2011,04,16,01,17,1.80
2011,04,16,01,18,1.80
2011,04,16,01,19,1.80
2011,04,16,01,20,1.80
2011,04,16,01,21,1.80
2011,04,16,01,22,1.80
2011,04,16,01,23,1.80
2011,04,16,01,24,1.80
2011,04,16,01,25,1.80
2011,04,16,01,26,1.80
2011,04,16,01,27,1.80
2011,04,16,01,28,1.80
2011,04,16,01,29,1.80
2011,04,16,01,30,1.80
2011,04,16,01,31,1.80
2011,04,16,01,32,1.80
2011,04,16,01,33,1.80
2011,04,16,01,34,1.80
2011,04,16,01,35,1.80
2011,04,16,01,36,1.80
2011,04,16,01,37,1.80
2011,04,16,01,38,1.80
2011,04,16,01,39,1.80
2011,04,16,01,40,1.80
2011,04,16,01,41,1.80
2011,04,16,01,42,1.80
2011,04,16,01,43,1.80
2011,04,16,01,44,1.80
2011,04,16,01,45,1.80
2011,04,16,01,46,1.80
2011,04,16,01,47,1.80
2011,04,16,01,48,1.80
2011,04,16,01,49,1.80
2011,04,16,01,50,1.80
2011,04,16,01,51,1.80
2011,04,16,01,52,1.80
2011,04,16,01,53,1.80
2011,04,16,01,56,1.70
2011,04,16,01,57,1.70
2011,04,16,01,58,1.70
2011,04,16,01,59,1.60
2011,04,16,02,00,1.60
2011,04,16,02,01,1.60
2011,04,16,02,02,1.60
2011,04,16,02,03,1.60
2011,04,16,02,04,1.50
2011,04,16,02,05,1.50
2011,04,16,02,06,1.40
2011,04,16,02,09,1.40
2011,04,16,02,10,1.40
2011,04,16,02,11,1.40
2011,04,16,02,12,1.40
2011,04,16,02,13,1.40
2011,04,16,02,14,1.30
2011,04,16,02,15,1.30
2011,04,16,02,16,1.30
2011,04,16,02,17,1.30
2011,04,16,02,18,1.30
2011,04,16,02,19,1.30
2011,04,16,02,20,1.30
2011,04,16,02,21,1.30
2011,04,16,02,22,1.30
2011,04,16,02,23,1.30
2011,04,16,02,24,1.30
2011,04,16,02,25,1.30
2011,04,16,02,26,1.30
2011,04,16,02,27,1.30
2011,04,16,02,28,1.30
2011,04,16,02,29,1.30
2011,04,16,02,30,1.30
2011,04,16,02,31,1.30
2011,04,16,02,32,1.30
2011,04,16,02,33,1.30
2011,04,16,02,34,1.30
2011,04,16,02,35,1.30
2011,04,16,02,36,1.30
2011,04,16,02,37,1.30
2011,04,16,02,38,1.30
2011,04,16,02,39,1.30
2011,04,16,02,40,1.30
2011,04,16,02,41,1.30
2011,04,16,02,42,1.30
2011,04,16,02,43,1.30
2011,04,16,02,44,1.30
2011,04,16,02,45,1.30
2011,04,16,02,46,1.30
2011,04,16,02,47,1.30
2011,04,16,02,48,1.30
2011,04,16,02,49,1.20
2011,04,16,02,50,1.20
2011,04,16,02,51,1.20
2011,04,16,02,52,1.20
2011,04,16,02,53,1.20
2011,04,16,02,54,1.20
2011,04,16,02,55,1.20
2011,04,16,02,56,1.10
2011,04,16,02,57,1.10
2011,04,16,02,58,1.10
2011,04,16,02,59,1.10
2011,04,16,03,00,1.00
2011,04,16,03,01,1.00
2011,04,16,03,02,1.00
2011,04,16,03,03,1.00
2011,04,16,03,06,1.00
2011,04,16,03,07,0.90
2011,04,16,03,08,0.90
2011,04,16,03,09,0.90
2011,04,16,03,10,0.90
2011,04,16,03,11,0.90
2011,04,16,03,12,0.90
2011,04,16,03,13,0.90
2011,04,16,03,14,0.90
2011,04,16,03,15,0.80
2011,04,16,03,16,0.80
2011,04,16,03,17,0.80
2011,04,16,03,18,0.80
2011,04,16,03,19,0.80
2011,04,16,03,20,0.80
2011,04,16,03,21,0.80
2011,04,16,03,22,0.80
2011,04,16,03,23,0.80
2011,04,16,03,24,0.80
2011,04,16,03,25,0.80
2011,04,16,03,26,0.80
2011,04,16,03,27,0.80
2011,04,16,03,28,0.80
2011,04,16,03,29,0.80
2011,04,16,03,30,0.90
2011,04,16,03,31,0.90
2011,04,16,03,32,0.90
2011,04,16,03,33,0.90
2011,04,16,03,34,0.90
2011,04,16,03,35,0.90
2011,04,16,03,36,0.90
2011,04,16,03,37,0.90
2011,04,16,03,38,0.90
2011,04,16,03,39,0.80
2011,04,16,03,40,0.80
2011,04,16,03,41,0.80
2011,04,16,03,42,0.80
2011,04,16,03,43,0.80
2011,04,16,03,44,0.80
2011,04,16,03,45,0.80
2011,04,16,03,46,0.80
2011,04,16,03,47,0.80
2011,04,16,03,48,0.80
2011,04,16,03,49,0.70
2011,04,16,03,50,0.70
2011,04,16,03,51,0.70
2011,04,16,03,52,0.70
2011,04,16,03,53,0.70
2011,04,16,03,54,0.60
2011,04,16,03,55,0.60
2011,04,16,03,56,0.60
2011,04,16,03,57,0.60
2011,04,16,03,58,0.60
2011,04,16,03,59,0.60
2011,04,16,04,00,0.60
2011,04,16,04,01,0.60
2011,04,16,04,02,0.60
2011,04,16,04,03,0.60
2011,04,16,04,04,0.60
2011,04,16,04,05,0.60
2011,04,16,04,06,0.60
2011,04,16,04,07,0.60
2011,04,16,04,08,0.60
2011,04,16,04,09,0.70
2011,04,16,04,10,0.70
2011,04,16,04,11,0.70
2011,04,16,04,12,0.70
2011,04,16,04,13,0.80
2011,04,16,04,14,0.80
2011,04,16,04,15,0.80
2011,04,16,04,16,0.80
2011,04,16,04,17,0.80
2011,04,16,04,18,0.80
2011,04,16,04,19,0.80
2011,04,16,04,20,0.80
2011,04,16,04,21,0.80
2011,04,16,04,22,0.80
2011,04,16,04,23,0.80
2011,04,16,04,24,0.80
2011,04,16,04,25,0.80
2011,04,16,04,26,0.80
2011,04,16,04,27,0.80
2011,04,16,04,28,0.80
2011,04,16,04,29,0.80
2011,04,16,04,30,0.80
2011,04,16,04,31,0.80
2011,04,16,04,32,0.80
2011,04,16,04,33,0.80
2011,04,16,04,34,0.80
2011,04,16,04,35,0.80
2011,04,16,04,36,0.80
2011,04,16,04,37,0.80
2011,04,16,04,38,0.80
2011,04,16,04,39,0.80
2011,04,16,04,40,0.80
2011,04,16,04,41,0.80
2011,04,16,04,42,0.80
2011,04,16,04,43,0.80
2011,04,16,04,44,0.80
2011,04,16,04,45,0.80
2011,04,16,04,46,0.80
2011,04,16,04,47,0.80
2011,04,16,04,48,0.80
2011,04,16,04,49,0.80
2011,04,16,04,50,0.70
2011,04,16,04,51,0.70
2011,04,16,04,52,0.70
2011,04,16,04,53,0.70
2011,04,16,04,54,0.70
2011,04,16,04,55,0.70
2011,04,16,04,56,0.70
2011,04,16,04,57,0.70
2011,04,16,04,58,0.70
2011,04,16,04,59,0.60
2011,04,16,05,00,0.60
2011,04,16,05,01,0.60
2011,04,16,05,02,0.60
2011,04,16,05,03,0.60
2011,04,16,05,04,0.60
2011,04,16,05,05,0.50
2011,04,16,05,06,0.50
2011,04,16,05,07,0.50
2011,04,16,05,08,0.50
2011,04,16,05,09,0.50
2011,04,16,05,10,0.50
2011,04,16,05,11,0.50
2011,04,16,05,12,0.50
2011,04,16,05,13,0.60
2011,04,16,05,14,0.60
2011,04,16,05,15,0.60
2011,04,16,05,16,0.60
2011,04,16,05,17,0.60
2011,04,16,05,18,0.60
2011,04,16,05,19,0.70
2011,04,16,05,20,0.70
2011,04,16,05,21,0.70
2011,04,16,05,22,0.70
2011,04,16,05,23,0.70
2011,04,16,05,24,0.60
2011,04,16,05,25,0.60
2011,04,16,05,26,0.60
2011,04,16,05,27,0.50
2011,04,16,05,28,0.50
2011,04,16,05,29,0.40
2011,04,16,05,30,0.40
2011,04,16,05,31,0.40
2011,04,16,05,32,0.40
2011,04,16,05,33,0.40
2011,04,16,05,34,0.40
2011,04,16,05,35,0.40
2011,04,16,05,36,0.40
2011,04,16,05,37,0.40
2011,04,16,05,38,0.40
2011,04,16,05,39,0.40
2011,04,16,05,40,0.30
2011,04,16,05,41,0.30
2011,04,16,05,42,0.30
2011,04,16,05,43,0.30
2011,04,16,05,44,0.30
2011,04,16,05,45,0.20
2011,04,16,05,46,0.20
2011,04,16,05,47,0.20
2011,04,16,05,48,0.10
2011,04,16,05,49,0.10
2011,04,16,05,50,0.00
2011,04,16,05,51,0.00
2011,04,16,05,52,0.00
2011,04,16,05,53,0.00
2011,04,16,05,54,0.00
2011,04,16,05,55,0.00
2011,04,16,05,56,0.10
2011,04,16,05,57,0.10
2011,04,16,05,58,0.20
2011,04,16,05,59,0.20
2011,04,16,06,02,0.30
2011,04,16,06,03,0.40
2011,04,16,06,04,0.40
2011,04,16,06,05,0.40
2011,04,16,06,06,0.40
2011,04,16,06,07,0.40
2011,04,16,06,08,0.40
2011,04,16,06,09,0.30
2011,04,16,06,10,0.30
2011,04,16,06,11,0.30
2011,04,16,06,12,0.30
2011,04,16,06,13,0.30
2011,04,16,06,14,0.30
2011,04,16,06,15,0.40
2011,04,16,06,16,0.40
2011,04,16,06,17,0.40
2011,04,16,06,18,0.40
2011,04,16,06,19,0.40
2011,04,16,06,20,0.50
2011,04,16,06,21,0.50
2011,04,16,06,22,0.50
2011,04,16,06,23,0.50
2011,04,16,06,24,0.50
2011,04,16,06,25,0.50
2011,04,16,06,26,0.50
2011,04,16,06,27,0.50
2011,04,16,06,28,0.50
2011,04,16,06,29,0.50
2011,04,16,06,30,0.50
2011,04,16,06,31,0.50
2011,04,16,06,32,0.50
2011,04,16,06,33,0.50
2011,04,16,06,34,0.60
2011,04,16,06,35,0.60
2011,04,16,06,36,0.50
2011,04,16,06,37,0.60
2011,04,16,06,38,0.60
2011,04,16,06,39,0.50
2011,04,16,06,40,0.50
2011,04,16,06,41,0.60
2011,04,16,06,42,0.60
2011,04,16,06,43,0.60
2011,04,16,06,44,0.60
2011,04,16,06,45,0.60
2011,04,16,06,46,0.60
2011,04,16,06,47,0.60
2011,04,16,06,48,0.70
2011,04,16,06,49,0.70
2011,04,16,06,50,0.70
2011,04,16,06,51,0.70
2011,04,16,06,52,0.70
2011,04,16,06,53,0.80
2011,04,16,06,54,0.80
2011,04,16,06,55,0.80
2011,04,16,06,56,0.80
2011,04,16,06,57,0.80
2011,04,16,06,58,0.80
2011,04,16,06,59,0.90
2011,04,16,07,00,0.90
2011,04,16,07,01,0.90
2011,04,16,07,02,0.90
2011,04,16,07,03,0.90
2011,04,16,07,04,0.90
2011,04,16,07,05,0.90
2011,04,16,07,06,1.00
2011,04,16,07,07,1.00
2011,04,16,07,08,1.00
2011,04,16,07,09,1.00
2011,04,16,07,10,1.00
2011,04,16,07,11,1.00
2011,04,16,07,12,1.00
2011,04,16,07,13,1.00
2011,04,16,07,14,1.10
2011,04,16,07,15,1.10
2011,04,16,07,16,1.10
2011,04,16,07,17,1.10
2011,04,16,07,18,1.10
2011,04,16,07,19,1.10
2011,04,16,07,20,1.10
2011,04,16,07,21,1.20
2011,04,16,07,22,1.20
2011,04,16,07,23,1.20
2011,04,16,07,24,1.30
2011,04,16,07,25,1.30
2011,04,16,07,26,1.30
2011,04,16,07,27,1.30
2011,04,16,07,28,1.40
2011,04,16,07,29,1.40
2011,04,16,07,30,1.50
2011,04,16,07,31,1.50
2011,04,16,07,32,1.50
2011,04,16,07,33,1.50
2011,04,16,07,34,1.60
2011,04,16,07,35,1.60
2011,04,16,07,36,1.60
2011,04,16,07,37,1.60
2011,04,16,07,38,1.60
2011,04,16,07,39,1.60
2011,04,16,07,40,1.60
2011,04,16,07,43,1.60
2011,04,16,07,44,1.60
2011,04,16,07,45,1.60
2011,04,16,07,46,1.60
2011,04,16,07,47,1.70
2011,04,16,07,48,1.70
2011,04,16,07,49,1.70
2011,04,16,07,50,1.70
2011,04,16,07,51,1.80
2011,04,16,07,52,1.80
2011,04,16,07,53,1.80
2011,04,16,07,54,1.80
2011,04,16,07,55,1.80
2011,04,16,07,56,1.90
2011,04,16,07,57,1.90
2011,04,16,07,58,1.90
2011,04,16,07,59,1.90
2011,04,16,08,00,2.00
2011,04,16,08,01,2.00
2011,04,16,08,02,2.00
2011,04,16,08,03,2.10
2011,04,16,08,04,2.10
2011,04,16,08,05,2.10
2011,04,16,08,06,2.20
2011,04,16,08,07,2.20
2011,04,16,08,08,2.20
2011,04,16,08,09,2.20
2011,04,16,08,10,2.30
2011,04,16,08,11,2.30
2011,04,16,08,12,2.30
2011,04,16,08,13,2.30
2011,04,16,08,14,2.40
2011,04,16,08,15,2.40
2011,04,16,08,16,2.40
2011,04,16,08,17,2.40
2011,04,16,08,18,2.40
2011,04,16,08,19,2.50
2011,04,16,08,20,2.50
2011,04,16,08,21,2.50
2011,04,16,08,22,2.50
2011,04,16,08,23,2.50
2011,04,16,08,24,2.60
2011,04,16,08,25,2.60
2011,04,16,08,26,2.60
2011,04,16,08,27,2.60
2011,04,16,08,28,2.60
2011,04,16,08,29,2.70
2011,04,16,08,30,2.70
2011,04,16,08,31,2.70
2011,04,16,08,32,2.70
2011,04,16,08,33,2.80
2011,04,16,08,34,2.80
2011,04,16,08,35,2.90
2011,04,16,08,36,2.90
2011,04,16,08,37,3.00
2011,04,16,08,38,3.00
2011,04,16,08,39,3.10
2011,04,16,08,40,3.20
2011,04,16,08,41,3.20
2011,04,16,08,42,3.30
2011,04,16,08,43,3.40
2011,04,16,08,44,3.50
2011,04,16,08,45,3.60
2011,04,16,08,46,3.70
2011,04,16,08,47,3.80
2011,04,16,08,48,3.90
2011,04,16,08,49,4.00
2011,04,16,08,50,4.10
2011,04,16,08,51,4.10
2011,04,16,08,52,4.20
2011,04,16,08,53,4.30
2011,04,16,08,54,4.40
2011,04,16,08,55,4.40
2011,04,16,08,56,4.50
2011,04,16,08,57,4.60
2011,04,16,08,58,4.70
2011,04,16,08,59,4.90
2011,04,16,09,00,5.00
2011,04,16,09,01,5.00
2011,04,16,09,02,5.20
2011,04,16,09,03,5.30
2011,04,16,09,04,5.40
2011,04,16,09,05,5.50
2011,04,16,09,06,5.60
2011,04,16,09,07,5.60
2011,04,16,09,08,5.70
2011,04,16,09,09,5.80
2011,04,16,09,10,5.90
2011,04,16,09,11,6.00
2011,04,16,09,12,6.10
2011,04,16,09,13,6.20
2011,04,16,09,14,6.20
2011,04,16,09,15,6.30
2011,04,16,09,16,6.30
2011,04,16,09,17,6.40
2011,04,16,09,18,6.40
2011,04,16,09,19,6.40
2011,04,16,09,20,6.40
2011,04,16,09,21,6.50
2011,04,16,09,22,6.50
2011,04,16,09,23,6.50
2011,04,16,09,24,6.60
2011,04,16,09,25,6.60
2011,04,16,09,26,6.60
2011,04,16,09,27,6.60
2011,04,16,09,28,6.60
2011,04,16,09,29,6.60
2011,04,16,09,30,6.60
2011,04,16,09,31,6.50
2011,04,16,09,32,6.50
2011,04,16,09,33,6.50
2011,04,16,09,34,6.60
2011,04,16,09,35,6.50
2011,04,16,09,36,6.60
2011,04,16,09,37,6.60
2011,04,16,09,38,6.60
2011,04,16,09,39,6.60
2011,04,16,09,40,6.70
2011,04,16,09,41,6.70
2011,04,16,09,42,6.70
2011,04,16,09,43,6.80
2011,04,16,09,44,6.80
2011,04,16,09,45,6.90
2011,04,16,09,46,6.90
2011,04,16,09,47,7.00
2011,04,16,09,48,7.10
2011,04,16,09,49,7.20
2011,04,16,09,50,7.20
2011,04,16,09,51,7.20
2011,04,16,09,52,7.30
2011,04,16,09,53,7.30
2011,04,16,09,54,7.40
2011,04,16,09,55,7.50
2011,04,16,09,56,7.50
2011,04,16,09,57,7.60
2011,04,16,09,58,7.70
2011,04,16,09,59,7.70
2011,04,16,10,00,7.80
2011,04,16,10,01,7.80
2011,04,16,10,02,7.80
2011,04,16,10,03,7.90
2011,04,16,10,04,7.90
2011,04,16,10,05,8.00
2011,04,16,10,06,7.90
2011,04,16,10,07,8.00
2011,04,16,10,08,8.00
2011,04,16,10,09,8.00
2011,04,16,10,10,8.00
2011,04,16,10,11,8.10
2011,04,16,10,12,8.20
2011,04,16,10,13,8.20
2011,04,16,10,14,8.20
2011,04,16,10,15,8.10
2011,04,16,10,16,8.10
2011,04,16,10,17,8.10
2011,04,16,10,18,8.10
2011,04,16,10,19,7.90
2011,04,16,10,20,7.80
2011,04,16,10,21,7.80
2011,04,16,10,22,7.80
2011,04,16,10,23,7.80
2011,04,16,10,24,7.80
2011,04,16,10,25,7.90
2011,04,16,10,26,8.00
2011,04,16,10,27,8.10
2011,04,16,10,28,8.10
2011,04,16,10,29,8.10
2011,04,16,10,30,8.10
2011,04,16,10,31,8.10
2011,04,16,10,32,8.10
2011,04,16,10,33,8.10
2011,04,16,10,34,8.20
2011,04,16,10,35,8.30
2011,04,16,10,36,8.30
2011,04,16,10,37,8.30
2011,04,16,10,38,8.40
2011,04,16,10,39,8.40
2011,04,16,10,40,8.40
2011,04,16,10,41,8.40
2011,04,16,10,42,8.40
2011,04,16,10,43,8.40
2011,04,16,10,44,8.40
2011,04,16,10,45,8.40
2011,04,16,10,46,8.30
2011,04,16,10,47,8.40
2011,04,16,10,48,8.40
2011,04,16,10,49,8.30
2011,04,16,10,50,8.40
2011,04,16,10,51,8.40
2011,04,16,10,52,8.50
2011,04,16,10,53,8.50
2011,04,16,10,54,8.50
2011,04,16,10,55,8.40
2011,04,16,10,56,8.40
2011,04,16,10,57,8.40
2011,04,16,10,58,8.50
2011,04,16,10,59,8.70
2011,04,16,11,00,8.80
2011,04,16,11,01,8.80
2011,04,16,11,02,8.80
2011,04,16,11,03,8.80
2011,04,16,11,04,8.80
2011,04,16,11,05,8.90
2011,04,16,11,06,8.90
2011,04,16,11,07,8.90
2011,04,16,11,08,9.00
2011,04,16,11,09,9.00
2011,04,16,11,10,8.90
2011,04,16,11,11,8.90
2011,04,16,11,12,8.90
2011,04,16,11,13,9.00
2011,04,16,11,14,9.00
2011,04,16,11,15,8.80
2011,04,16,11,16,8.80
2011,04,16,11,17,8.60
2011,04,16,11,18,8.30
2011,04,16,11,19,8.00
2011,04,16,11,20,7.70
2011,04,16,11,21,7.50
2011,04,16,11,22,7.30
2011,04,16,11,23,7.10
2011,04,16,11,24,6.90
2011,04,16,11,25,6.70
2011,04,16,11,26,6.60
2011,04,16,11,27,6.50
2011,04,16,11,28,6.40
2011,04,16,11,29,6.30
2011,04,16,11,30,6.10
2011,04,16,11,31,6.00
2011,04,16,11,32,5.90
2011,04,16,11,33,5.90
2011,04,16,11,34,5.80
2011,04,16,11,35,5.70
2011,04,16,11,36,5.70
2011,04,16,11,37,5.60
2011,04,16,11,38,5.50
2011,04,16,11,39,5.40
2011,04,16,11,40,5.30
2011,04,16,11,41,5.20
2011,04,16,11,42,5.20
2011,04,16,11,43,5.10
2011,04,16,11,44,5.10
2011,04,16,11,45,5.10
2011,04,16,11,46,5.00
2011,04,16,11,47,5.00
2011,04,16,11,48,5.00
2011,04,16,11,49,4.90
2011,04,16,11,50,4.90
2011,04,16,11,51,4.80
2011,04,16,11,52,4.80
2011,04,16,11,53,4.80
2011,04,16,11,54,4.80
2011,04,16,11,55,4.80
2011,04,16,11,56,4.80
2011,04,16,11,57,4.80
2011,04,16,11,58,4.70
2011,04,16,11,59,4.80
2011,04,16,12,00,4.80
2011,04,16,12,01,4.80
2011,04,16,12,02,4.90
2011,04,16,12,03,4.90
2011,04,16,12,04,4.90
2011,04,16,12,05,4.90
2011,04,16,12,06,5.00
2011,04,16,12,07,5.00
2011,04,16,12,08,5.10
2011,04,16,12,09,5.20
2011,04,16,12,10,5.30
2011,04,16,12,11,5.40
2011,04,16,12,12,5.60
2011,04,16,12,13,5.60
2011,04,16,12,16,5.70
2011,04,16,12,17,5.70
2011,04,16,12,18,5.60
2011,04,16,12,19,5.60
2011,04,16,12,20,5.60
2011,04,16,12,21,5.60
2011,04,16,12,22,5.60
2011,04,16,12,23,5.60
2011,04,16,12,24,5.60
2011,04,16,12,25,5.70
2011,04,16,12,26,5.80
2011,04,16,12,27,5.80
2011,04,16,12,28,5.90
2011,04,16,12,29,5.90
2011,04,16,12,30,5.90
2011,04,16,12,31,5.90
2011,04,16,12,32,5.90
2011,04,16,12,33,5.90
2011,04,16,12,34,5.80
2011,04,16,12,35,5.80
2011,04,16,12,36,5.80
2011,04,16,12,37,5.80
2011,04,16,12,38,5.90
2011,04,16,12,39,6.00
2011,04,16,12,40,6.10
2011,04,16,12,41,6.20
2011,04,16,12,42,6.40
2011,04,16,12,43,6.60
2011,04,16,12,44,6.70
2011,04,16,12,45,6.70
2011,04,16,12,46,6.70
2011,04,16,12,47,6.70
2011,04,16,12,48,6.70
2011,04,16,12,49,6.70
2011,04,16,12,50,6.80
2011,04,16,12,51,6.90
2011,04,16,12,52,6.90
2011,04,16,12,53,6.90
2011,04,16,12,54,6.90
2011,04,16,12,55,6.90
2011,04,16,12,56,6.80
2011,04,16,12,57,6.70
2011,04,16,12,58,6.70
2011,04,16,12,59,6.60
2011,04,16,13,00,6.60
2011,04,16,13,01,6.60
2011,04,16,13,02,6.60
2011,04,16,13,03,6.70
2011,04,16,13,04,6.70
2011,04,16,13,05,6.80
2011,04,16,13,06,6.90
2011,04,16,13,07,7.00
2011,04,16,13,08,7.10
2011,04,16,13,09,7.20
2011,04,16,13,10,7.30
2011,04,16,13,11,7.50
2011,04,16,13,14,7.80
2011,04,16,13,15,7.80
2011,04,16,13,16,7.80
2011,04,16,13,19,7.90
2011,04,16,13,20,8.00
2011,04,16,13,21,8.10
2011,04,16,13,22,8.10
2011,04,16,13,23,8.10
2011,04,16,13,24,8.10
2011,04,16,13,25,8.20
2011,04,16,13,26,8.20
2011,04,16,13,27,8.20
2011,04,16,13,28,8.30
2011,04,16,13,29,8.30
2011,04,16,13,30,8.30
2011,04,16,13,31,8.30
2011,04,16,13,32,8.30
2011,04,16,13,33,8.30
2011,04,16,13,34,8.20
2011,04,16,13,35,8.20
2011,04,16,13,36,8.30
2011,04,16,13,37,8.30
2011,04,16,13,38,8.30
2011,04,16,13,39,8.20
2011,04,16,13,40,8.20
2011,04,16,13,41,8.20
2011,04,16,13,42,8.20
2011,04,16,13,43,8.30
2011,04,16,13,44,8.40
2011,04,16,13,45,8.50
2011,04,16,13,46,8.60
2011,04,16,13,47,8.60
2011,04,16,13,48,8.50
2011,04,16,13,49,8.50
2011,04,16,13,50,8.40
2011,04,16,13,51,8.30
2011,04,16,13,52,8.30
2011,04,16,13,53,8.30
2011,04,16,13,54,8.30
2011,04,16,13,55,8.30
2011,04,16,13,56,8.20
2011,04,16,13,57,8.20
2011,04,16,13,58,8.10
2011,04,16,13,59,8.10
2011,04,16,14,00,8.00
2011,04,16,14,01,7.90
2011,04,16,14,02,7.80
2011,04,16,14,03,7.80
2011,04,16,14,04,7.80
2011,04,16,14,05,7.80
2011,04,16,14,06,7.80
2011,04,16,14,07,7.80
2011,04,16,14,08,7.80
2011,04,16,14,09,7.80
2011,04,16,14,10,7.80
2011,04,16,14,11,7.90
2011,04,16,14,12,7.90
2011,04,16,14,13,8.00
2011,04,16,14,14,8.00
2011,04,16,14,15,8.10
2011,04,16,14,16,8.20
2011,04,16,14,17,8.40
2011,04,16,14,18,8.60
2011,04,16,14,19,8.70
2011,04,16,14,20,8.80
2011,04,16,14,21,8.90
2011,04,16,14,22,9.00
2011,04,16,14,23,9.10
2011,04,16,14,24,9.10
2011,04,16,14,25,9.20
2011,04,16,14,26,9.30
2011,04,16,14,27,9.30
2011,04,16,14,28,9.40
2011,04,16,14,29,9.50
2011,04,16,14,30,9.60
2011,04,16,14,31,9.70
2011,04,16,14,32,9.70
2011,04,16,14,33,9.80
2011,04,16,14,34,9.80
2011,04,16,14,35,9.80
2011,04,16,14,36,9.80
2011,04,16,14,37,9.80
2011,04,16,14,38,9.80
2011,04,16,14,39,9.80
2011,04,16,14,40,9.80
2011,04,16,14,41,9.90
2011,04,16,14,42,10.00
2011,04,16,14,43,10.10
2011,04,16,14,44,10.20
2011,04,16,14,45,10.30
2011,04,16,14,46,10.40
2011,04,16,14,47,10.40
2011,04,16,14,48,10.40
2011,04,16,14,49,10.30
2011,04,16,14,50,10.30
2011,04,16,14,51,10.20
2011,04,16,14,52,10.20
2011,04,16,14,53,10.20
2011,04,16,14,54,10.20
2011,04,16,14,55,10.20
2011,04,16,14,56,10.20
2011,04,16,14,57,10.10
2011,04,16,14,58,10.10
2011,04,16,14,59,10.10
2011,04,16,15,00,10.00
2011,04,16,15,01,10.00
2011,04,16,15,02,10.10
2011,04,16,15,03,10.10
2011,04,16,15,04,10.10
2011,04,16,15,05,10.00
2011,04,16,15,06,9.80
2011,04,16,15,07,9.60
2011,04,16,15,08,9.40
2011,04,16,15,09,9.30
2011,04,16,15,10,9.30
2011,04,16,15,11,9.30
2011,04,16,15,12,9.40
2011,04,16,15,13,9.40
2011,04,16,15,14,9.40
2011,04,16,15,15,9.40
2011,04,16,15,16,9.30
2011,04,16,15,17,9.30
2011,04,16,15,18,9.30
2011,04,16,15,19,9.30
2011,04,16,15,20,9.30
2011,04,16,15,21,9.30
2011,04,16,15,22,9.30
2011,04,16,15,23,9.30
2011,04,16,15,24,9.30
2011,04,16,15,25,9.30
2011,04,16,15,26,9.20
2011,04,16,15,27,9.10
2011,04,16,15,28,8.90
2011,04,16,15,29,8.70
2011,04,16,15,30,8.60
2011,04,16,15,31,8.40
2011,04,16,15,32,8.30
2011,04,16,15,33,8.10
2011,04,16,15,34,8.00
2011,04,16,15,35,7.80
2011,04,16,15,36,7.70
2011,04,16,15,37,7.60
2011,04,16,15,38,7.50
2011,04,16,15,39,7.40
2011,04,16,15,40,7.30
2011,04,16,15,41,7.30
2011,04,16,15,42,7.30
2011,04,16,15,43,7.30
2011,04,16,15,44,7.30
2011,04,16,15,45,7.30
2011,04,16,15,46,7.30
2011,04,16,15,47,7.30
2011,04,16,15,48,7.30
2011,04,16,15,49,7.40
2011,04,16,15,50,7.40
2011,04,16,15,51,7.40
2011,04,16,15,52,7.60
2011,04,16,15,53,7.70
2011,04,16,15,54,7.80
2011,04,16,15,55,8.00
2011,04,16,15,56,8.10
2011,04,16,15,57,8.30
2011,04,16,15,58,8.50
2011,04,16,15,59,8.70
2011,04,16,16,00,8.80
2011,04,16,16,01,8.90
2011,04,16,16,02,9.00
2011,04,16,16,03,9.20
2011,04,16,16,04,9.30
2011,04,16,16,05,9.40
2011,04,16,16,06,9.50
2011,04,16,16,07,9.60
2011,04,16,16,08,9.70
2011,04,16,16,09,9.80
2011,04,16,16,10,9.70
2011,04,16,16,11,9.70
2011,04,16,16,12,9.70
2011,04,16,16,13,9.70
2011,04,16,16,14,9.70
2011,04,16,16,15,9.70
2011,04,16,16,16,9.70
2011,04,16,16,17,9.70
2011,04,16,16,18,9.70
2011,04,16,16,19,9.80
2011,04,16,16,20,9.80
2011,04,16,16,21,9.90
2011,04,16,16,22,10.00
2011,04,16,16,23,10.00
2011,04,16,16,24,10.20
2011,04,16,16,25,10.30
2011,04,16,16,26,10.40
2011,04,16,16,27,10.40
2011,04,16,16,28,10.40
2011,04,16,16,29,10.50
2011,04,16,16,30,10.50
2011,04,16,16,31,10.50
2011,04,16,16,32,10.50
2011,04,16,16,33,10.60
2011,04,16,16,34,10.60
2011,04,16,16,35,10.60
2011,04,16,16,36,10.60
2011,04,16,16,37,10.60
2011,04,16,16,38,10.60
2011,04,16,16,39,10.60
2011,04,16,16,40,10.60
2011,04,16,16,41,10.50
2011,04,16,16,42,10.50
2011,04,16,16,43,10.50
2011,04,16,16,44,10.50
2011,04,16,16,45,10.40
2011,04,16,16,46,10.40
2011,04,16,16,47,10.40
2011,04,16,16,48,10.50
2011,04,16,16,49,10.50
2011,04,16,16,50,10.50
2011,04,16,16,51,10.60
2011,04,16,16,52,10.50
2011,04,16,16,53,10.50
2011,04,16,16,54,10.50
2011,04,16,16,55,10.40
2011,04,16,16,56,10.40
2011,04,16,16,57,10.30
2011,04,16,16,58,10.40
2011,04,16,16,59,10.40
2011,04,16,17,00,10.50
2011,04,16,17,01,10.50
2011,04,16,17,02,10.60
2011,04,16,17,03,10.60
2011,04,16,17,04,10.70
2011,04,16,17,05,10.70
2011,04,16,17,06,10.80
2011,04,16,17,07,10.80
2011,04,16,17,08,10.80
2011,04,16,17,09,10.80
2011,04,16,17,10,10.70
2011,04,16,17,11,10.70
2011,04,16,17,12,10.70
2011,04,16,17,13,10.70
2011,04,16,17,14,10.70
2011,04,16,17,15,10.70
2011,04,16,17,16,10.60
2011,04,16,17,17,10.60
2011,04,16,17,18,10.60
2011,04,16,17,19,10.60
2011,04,16,17,20,10.50
2011,04,16,17,21,10.40
2011,04,16,17,22,10.30
2011,04,16,17,23,10.10
2011,04,16,17,24,10.10
2011,04,16,17,25,10.10
2011,04,16,17,26,10.10
2011,04,16,17,27,10.20
2011,04,16,17,28,10.20
2011,04,16,17,29,10.20
2011,04,16,17,30,10.20
2011,04,16,17,31,10.30
2011,04,16,17,32,10.30
2011,04,16,17,33,10.40
2011,04,16,17,34,10.40
2011,04,16,17,35,10.40
2011,04,16,17,36,10.50
2011,04,16,17,37,10.60
2011,04,16,17,38,10.60
2011,04,16,17,39,10.70
2011,04,16,17,40,10.70
2011,04,16,17,41,10.70
2011,04,16,17,42,10.70
2011,04,16,17,43,10.70
2011,04,16,17,44,10.70
2011,04,16,17,45,10.60
2011,04,16,17,46,10.60
2011,04,16,17,47,10.50
2011,04,16,17,48,10.40
2011,04,16,17,49,10.40
2011,04,16,17,50,10.30
2011,04,16,17,51,10.30
2011,04,16,17,52,10.20
2011,04,16,17,53,10.20
2011,04,16,17,54,10.30
2011,04,16,17,55,10.30
2011,04,16,17,56,10.20
2011,04,16,17,57,10.20
2011,04,16,17,58,10.20
2011,04,16,17,59,10.20
2011,04,16,18,00,10.30
2011,04,16,18,01,10.30
2011,04,16,18,02,10.30
2011,04,16,18,03,10.30
2011,04,16,18,04,10.40
2011,04,16,18,05,10.40
2011,04,16,18,06,10.40
2011,04,16,18,07,10.40
2011,04,16,18,08,10.40
2011,04,16,18,09,10.30
2011,04,16,18,10,10.30
2011,04,16,18,11,10.20
2011,04,16,18,12,10.20
2011,04,16,18,13,10.20
2011,04,16,18,14,10.20
2011,04,16,18,15,10.20
2011,04,16,18,16,10.20